Harry S. Truman Reservoir Weather Center

Moon Phase Calendar



Harry S. Truman Reservoir Water Level
Online Cameras

 


      

Current Conditions in Valley View
2/6/2023 12:58:50 AM

31°F
Feels Like 31
Clouds
Humidity
86%
Pressure
30.09"
Wind
0
Dew Point
27°F
UV Index
0/10 (Low)
Visibility
6 mi

Hourly Forecast

Date & Time Mon, Feb 6
12:00 AM
Mon, Feb 6
1:00 AM
Mon, Feb 6
2:00 AM
Mon, Feb 6
3:00 AM
Mon, Feb 6
4:00 AM
Mon, Feb 6
5:00 AM
Mon, Feb 6
6:00 AM
Mon, Feb 6
7:00 AM
Mon, Feb 6
8:00 AM
Mon, Feb 6
9:00 AM
Mon, Feb 6
10:00 AM
Mon, Feb 6
11:00 AM
Mon, Feb 6
12:00 PM
Mon, Feb 6
1:00 PM
Mon, Feb 6
2:00 PM
Mon, Feb 6
3:00 PM
Mon, Feb 6
4:00 PM
Mon, Feb 6
5:00 PM
Mon, Feb 6
6:00 PM
Mon, Feb 6
7:00 PM
Mon, Feb 6
8:00 PM
Mon, Feb 6
9:00 PM
Mon, Feb 6
10:00 PM
Mon, Feb 6
11:00 PM
Tue, Feb 7
12:00 AM
Tue, Feb 7
1:00 AM
Tue, Feb 7
2:00 AM
Tue, Feb 7
3:00 AM
Tue, Feb 7
4:00 AM
Tue, Feb 7
5:00 AM
Tue, Feb 7
6:00 AM
Tue, Feb 7
7:00 AM
Tue, Feb 7
8:00 AM
Tue, Feb 7
9:00 AM
Tue, Feb 7
10:00 AM
Tue, Feb 7
11:00 AM
Tue, Feb 7
12:00 PM
Tue, Feb 7
1:00 PM
Tue, Feb 7
2:00 PM
Tue, Feb 7
3:00 PM
Tue, Feb 7
4:00 PM
Tue, Feb 7
5:00 PM
Tue, Feb 7
6:00 PM
Tue, Feb 7
7:00 PM
Tue, Feb 7
8:00 PM
Tue, Feb 7
9:00 PM
Tue, Feb 7
10:00 PM
Tue, Feb 7
11:00 PM
Condition
Clouds

Clouds

Clouds

Clouds

Clouds

Clouds

Clouds

Clouds

Clouds

Clouds

Clouds

Clouds

Clouds

Clouds

Clouds

Clouds

Clouds

Clouds

Clouds

Clouds

Clouds

Clouds

Rain

Rain

Rain

Rain

Clouds

Clouds

Clouds

Clouds

Clouds

Clouds

Clouds

Clouds

Clouds

Clouds

Clouds

Clouds

Clouds

Clouds

Clouds

Clouds

Clouds

Clouds

Clouds

Clouds

Clouds

Clouds
Temperature 33°F31°F32°F34°F36°F39°F42°F43°F45°F50°F54°F58°F60°F63°F65°F65°F63°F61°F61°F60°F61°F60°F59°F58°F55°F52°F48°F47°F46°F45°F43°F43°F42°F43°F46°F48°F50°F51°F52°F52°F51°F49°F47°F45°F45°F44°F43°F43°F
Feels Like 27°F25°F26°F29°F31°F33°F36°F37°F39°F44°F53°F57°F59°F63°F64°F64°F62°F60°F60°F60°F60°F60°F59°F57°F54°F50°F45°F44°F43°F41°F39°F40°F39°F39°F42°F44°F47°F49°F50°F50°F49°F47°F44°F42°F42°F41°F40°F40°F
Cloudiness 50%40%51%63%75%87%99%100%100%100%100%100%100%100%100%100%100%100%100%100%100%100%100%98%98%100%98%99%99%95%96%100%100%99%84%85%87%76%88%92%94%95%96%100%100%100%100%100%
Visibility 6 mi6 mi6 mi6 mi6 mi6 mi6 mi6 mi6 mi6 mi6 mi6 mi6 mi6 mi6 mi6 mi6 mi6 mi6 mi6 mi6 mi6 mi6 mi6 mi6 mi6 mi6 mi6 mi6 mi6 mi6 mi6 mi6 mi6 mi6 mi6 mi6 mi6 mi6 mi6 mi6 mi6 mi6 mi6 mi6 mi6 mi6 mi6 mi
Precipitation 0%0%0%0%0%0%0%0%0%0%0%0%0%0%0%0%0%0%0%2%6%21%41%73%93%49%45%37%37%37%37%19%15%11%0%0%0%0%0%3%6%10%10%2%6%5%4%1%
Humidity 83%86%83%82%80%79%78%78%79%77%74%71%68%65%62%62%66%72%74%75%74%76%79%86%77%73%76%77%79%81%83%82%84%78%71%64%59%55%52%50%50%58%63%65%67%69%71%71%
Dew Point 29°F27°F28°F30°F31°F33°F35°F36°F39°F42°F46°F48°F49°F51°F52°F51°F51°F52°F52°F52°F52°F52°F53°F53°F47°F43°F41°F40°F40°F39°F38°F38°F38°F37°F36°F36°F36°F36°F35°F34°F33°F35°F34°F34°F34°F34°F34°F34°F
Pressure 30.09"30.09"30.09"30.09"30.06"30.03"30"30"29.97"29.94"29.91"29.88"29.83"29.8"29.74"29.74"29.74"29.77"29.8"29.8"29.8"29.8"29.83"29.85"29.88"29.91"29.94"29.94"29.97"30"30.03"30.09"30.12"30.15"30.15"30.15"30.15"30.15"30.12"30.12"30.12"30.15"30.18"30.18"30.18"30.18"30.18"30.18"
Wind Speed 5.7 mph5.9 mph6.5 mph6.8 mph7.5 mph8.4 mph9.4 mph10.2 mph11.9 mph13.6 mph15.6 mph17.3 mph18.3 mph18.1 mph18.3 mph18.4 mph17.6 mph16.6 mph16.4 mph16.2 mph17.7 mph18.6 mph17 mph14.6 mph8 mph5.8 mph5.9 mph6.2 mph6.2 mph6.4 mph6.7 mph4.8 mph4.9 mph7 mph7.6 mph7.4 mph7.4 mph6.8 mph7.1 mph7.5 mph6.6 mph5.3 mph4.8 mph5.8 mph5.6 mph6 mph5.3 mph5.7 mph
Wind
Direction
143°
SE
145°
SE
141°
SE
138°
SE
140°
SE
143°
SE
145°
SE
148°
SSE
151°
SSE
157°
SSE
163°
SSE
173°
S
178°
S
182°
S
187°
S
193°
SSW
199°
SSW
200°
SSW
197°
SSW
200°
SSW
206°
SSW
209°
SSW
218°
SW
245°
WSW
280°
W
285°
WNW
308°
NW
332°
NNW
326°
NW
328°
NNW
341°
NNW
321°
NW
334°
NNW
344°
NNW
351°
N
354°
N
359°
N
360°
N
360°
N

N
15°
NNE
15°
NNE
19°
NNE
22°
NNE
38°
NE
32°
NNE
42°
NE
39°
NE

Daily Forecast

Date High Low Precip. Humidity
Today
Feb 6

Rain
65 °F
31 °F
73%
68%
Tuesday
Feb 7

Rain
55 °F
42 °F
93%
59%
Wednesday
Feb 8

Rain
47 °F
38 °F
100%
95%
Thursday
Feb 9

Rain
52 °F
33 °F
79%
54%
Friday
Feb 10

Snow
36 °F
24 °F
100%
86%
Saturday
Feb 11

Clear
44 °F
19 °F
0%
58%
Sunday
Feb 12

Rain
47 °F
36 °F
88%
61%
Monday
Feb 13

Rain
47 °F
42 °F
100%
98%
Tuesday
Feb 14

Rain
52 °F
43 °F
100%
75%
Wednesday
Feb 15

Rain
61 °F
39 °F
100%
53%
Thursday
Feb 16

Rain
58 °F
36 °F
20%
74%
Friday
Feb 17

Clouds
35 °F
23 °F
0%
38%
Saturday
Feb 18

Clear
41 °F
22 °F
0%
26%
Sunday
Feb 19

Snow
40 °F
27 °F
99%
77%
Monday
Feb 20

Clouds
54 °F
38 °F
0%
79%
Tuesday
Feb 21

Clouds
56 °F
44 °F
0%
73%

Temperature 8-14 Day Outlook



Precipitation 8-14 Day Outlook






About Us
Contact Us
Site Map
Search Site
Advertise With Us
   
Truman.USLakes.info
THE HARRY S. TRUMAN RESERVOIR WEBSITE

Copyright 2023, Lakes Online
Privacy    |    Legal